Location: Newark
(12.4436°N, 0.6167°W)
Time: 21:12:57
(UTC+00:00)

Vanguard 1 - Pass Details

Date: 17 December 2019
Orbit: 651 x 3833 km, 34.2° (Epoch: 25 January)

Event Time Altitude Azimuth Distance (km) Brightness Sun altitude
Rises 22:28:23 0° 214° (SW) 4,760 13.9 -66.0°
Enters shadow 22:31:02 10° 209° (SSW) 4,121 13.4 -66.5°
Reaches altitude 10° 22:31:07 10° 208° (SSW) 4,104 - -66.5°
Maximum altitude 22:42:35 51° 135° (SE) 3,134 - -68.9°
Drops below altitude 10° 23:02:02 10° 67° (ENE) 6,702 - -72.7°
Sets 23:08:00 0° 63° (ENE) 7,912 - -73.8°
